[[{"header":{"parameterUnit":"m.s-1","parameterCategory":1,"la1":30.2991,"la2":30.254,"lo1":-89.0895,"lo2":-89.0444,"dy":0.0017,"dx":0.0017,"nx":28,"ny":28,"refTime":"2025-11-24T03:00:00:Z","depth":0,"parameterNumber":2,"parameterNumberName":"U-component_of_WINDS"},"data":[0,0,0,0,0,0,0,0,0,0,0,0,0,0,0,0,0,0,0,0,0,0,0,0,0,0,0,0,0,0,0,0,0,0,0,0,0,0,0,0,0,0,0,0,0,0,0,0,0,0,0,0,0,0,0,0,0,0,-0.7534,-0.7533,0,-0.751,-0.7509,-0.7509,-0.7529,-0.753,-0.7531,-0.7531,-0.7506,-0.7505,-0.7504,0,0,0,0,0,0,0,0,0,0,0,0,0,-0.7595,-0.7594,-0.7534,-0.7533,-0.7533,-0.751,-0.7509,-0.7509,-0.7529,-0.753,-0.7531,-0.7532,-0.7507,-0.7505,-0.7503,0,0,0,0,0,0,0,0,0,0,0,0,0,-0.757,-0.7594,-0.7534,-0.754,-0.754,-0.751,-0.7509,-0.7509,-0.7529,-0.753,-0.7531,-0.7532,-0.7507,-0.7505,-0.7503,-0.7465,0,0,-0.7497,-0.7496,0,0,0,0,0,0,0,0,-0.7571,-0.7567,-0.7539,-0.754,-0.754,-0.7524,-0.7522,-0.7494,-0.7528,-0.7533,-0.7531,-0.7533,-0.7511,-0.7509,-0.7501,-0.7464,-0.7463,-0.7496,-0.7495,-0.7494,-0.7494,0,0,0,0,0,0,0,-0.7573,-0.7568,-0.7524,-0.7539,-0.7539,-0.7544,-0.7541,-0.7517,-0.7515,-0.7533,-0.7534,-0.7531,-0.7511,-0.7504,-0.7501,-0.7462,-0.7496,-0.7495,-0.7493,-0.7492,-0.7391,-0.7389,0,0,0,0,0,0,-0.7574,-0.757,-0.7525,-0.7523,-0.7559,-0.7542,-0.7539,-0.7528,-0.7516,-0.7515,-0.753,-0.7532,-0.7507,-0.7504,-0.75,-0.7454,-0.7494,-0.7492,-0.7491,-0.7392,-0.739,-0.7389,0,0,0,0,0,0,-0.7575,-0.757,-0.7526,-0.7547,-0.7542,-0.7539,-0.7526,-0.7526,-0.7519,-0.7514,-0.7513,-0.7522,-0.7507,-0.7503,-0.7473,-0.7453,-0.7491,-0.7489,-0.7394,-0.7392,-0.739,-0.7361,0,0,0,0,0,0,-0.7577,-0.757,-0.7556,-0.7546,-0.7541,-0.75,-0.7525,-0.7525,-0.7515,-0.7517,-0.7506,-0.7506,-0.7508,-0.7476,-0.7471,-0.7451,-0.7488,-0.7396,-0.7393,-0.739,-0.7364,-0.7358,-0.7353,0,0,0,0,0,-0.7579,-0.7549,-0.7555,-0.755,-0.7523,-0.7499,-0.7495,-0.7499,-0.7513,-0.7499,-0.7495,-0.7506,-0.7456,-0.7473,-0.7467,-0.7446,-0.7397,-0.7394,-0.7391,-0.7366,-0.7359,-0.7354,0,0,0,0,0,0,-0.7556,-0.7548,-0.7555,-0.7521,-0.751,-0.7502,-0.7484,-0.7492,-0.7477,-0.748,-0.7484,-0.7482,-0.745,-0.7445,-0.7464,-0.7408,-0.7429,-0.7424,-0.7412,-0.7406,-0.7401,-0.7402,-0.7486,0,0,0,0,0,-0.7547,-0.7529,-0.7522,-0.7493,-0.7487,-0.7486,-0.7476,-0.7479,-0.7469,-0.7464,-0.7459,-0.7448,-0.743,-0.7417,-0.7401,-0.7363,-0.7361,-0.7346,-0.7341,-0.7336,-0.7332,-0.7311,-0.7304,-0.7379,-0.7379,-0.7379,0,0,-0.7529,-0.7522,-0.751,-0.7488,-0.748,-0.746,-0.7482,-0.7461,-0.7446,-0.7461,-0.7432,-0.7428,-0.7415,-0.7381,-0.7366,-0.7376,-0.7311,-0.7332,-0.7329,-0.7327,-0.7307,-0.73,-0.7294,-0.7376,-0.7377,-0.7377,0,0,-0.7485,-0.7478,-0.7452,-0.7444,-0.7431,-0.7431,-0.7424,-0.7415,-0.7412,-0.7383,-0.7394,-0.7376,-0.7345,-0.7335,-0.7327,-0.7277,-0.7286,-0.7272,-0.7245,-0.7224,-0.7218,-0.7213,-0.7194,-0.7188,-0.7268,-0.7268,-0.7268,0,-0.7463,-0.7433,-0.7438,-0.7415,-0.7404,-0.7417,-0.7391,-0.7382,-0.7365,-0.7357,-0.7369,-0.733,-0.7322,-0.7286,-0.7274,-0.7266,-0.7259,-0.7273,-0.7218,-0.7213,-0.7209,-0.7191,-0.7184,-0.7266,-0.7266,-0.7266,-0.7266,0,-0.7407,-0.7386,-0.7367,-0.7349,-0.7337,-0.7312,-0.7312,-0.7299,-0.7303,-0.7301,-0.7271,-0.7263,-0.7244,-0.7236,-0.724,-0.7199,-0.7206,-0.7218,-0.7239,-0.72,-0.7183,-0.7177,-0.7263,-0.7264,-0.7264,-0.7265,0,0,-0.7349,-0.7333,-0.7326,-0.7317,-0.7304,-0.7288,-0.7263,-0.7245,-0.7233,-0.722,-0.7199,-0.7172,-0.7183,-0.7173,-0.7176,-0.7158,-0.7118,-0.7172,-0.7172,-0.7162,-0.7072,-0.7062,-0.7054,-0.7124,-0.7123,-0.7122,-0.7072,0,-0.7303,-0.726,-0.7263,-0.7222,-0.7203,-0.7214,-0.7192,-0.7181,-0.7179,-0.7161,-0.7158,-0.7138,-0.7154,-0.7148,-0.7131,-0.7127,-0.71,-0.713,-0.7104,-0.7103,-0.7106,-0.7046,-0.7036,-0.699,-0.7066,-0.7065,-0.7064,0,-0.7245,-0.7229,-0.7187,-0.7175,-0.7167,-0.7148,-0.713,-0.7113,-0.7101,-0.71,-0.7088,-0.7094,-0.7069,-0.709,-0.7055,-0.7075,-0.7065,-0.7061,-0.7059,-0.7057,-0.7081,-0.7041,-0.6975,-0.6968,-0.7054,-0.7055,-0.7056,0,-0.7205,-0.7174,-0.7144,-0.7137,-0.7123,-0.7109,-0.7102,-0.7091,-0.7079,-0.7064,-0.7056,-0.7038,-0.7028,-0.7014,-0.7014,-0.703,-0.6978,-0.7,-0.6976,-0.6976,-0.6964,-0.6965,-0.6895,-0.6958,-0.6958,-0.6958,-0.6958,0,-0.7154,-0.7127,-0.7126,-0.7108,-0.7078,-0.7081,-0.7051,-0.7046,-0.7036,-0.7016,-0.7025,-0.7006,-0.7008,-0.699,-0.699,-0.696,-0.6956,-0.6954,-0.6954,-0.6953,-0.6953,-0.6946,-0.6949,-0.6957,-0.6957,-0.6957,-0.6958,0,-0.7105,-0.7103,-0.7071,-0.706,-0.7057,-0.7035,-0.7026,-0.7008,-0.7005,-0.698,-0.6975,-0.6971,-0.6949,-0.6948,-0.6923,-0.6923,-0.6886,-0.6891,-0.689,-0.6891,-0.6867,-0.6869,-0.679,-0.6779,-0.6849,-0.6849,-0.6848,0,-0.7073,-0.7052,-0.7038,-0.7026,-0.7018,-0.6998,-0.6986,-0.6987,-0.6974,-0.6957,-0.6941,-0.692,-0.6904,-0.6868,-0.6863,-0.6843,-0.6847,-0.682,-0.6844,-0.6843,-0.6846,-0.6847,-0.6844,-0.6816,-0.6815,-0.6814,-0.6814,0,-0.7015,-0.7014,-0.6996,-0.6977,-0.6962,-0.6947,-0.6933,-0.6923,-0.6922,-0.6907,-0.6884,-0.6871,-0.6845,-0.6824,-0.6805,-0.6798,-0.6805,-0.6806,-0.68,-0.6798,-0.6799,-0.6797,-0.6877,-0.6808,-0.6809,-0.6809,-0.681,-0.681,-0.6973,-0.6955,-0.6942,-0.6921,-0.691,-0.6897,-0.6879,-0.6874,-0.6855,-0.6834,-0.6836,-0.681,-0.6798,-0.6773,-0.6764,-0.6744,-0.6753,-0.6744,-0.6741,-0.6739,-0.6736,-0.6802,-0.6741,-0.6741,-0.6741,-0.6741,-0.6741,0,-0.6915,-0.6906,-0.6887,-0.6867,-0.685,-0.6858,-0.6843,-0.6829,-0.6806,-0.6793,-0.6776,-0.675,-0.6729,-0.6721,-0.6701,-0.6686,-0.6689,-0.6681,-0.6682,-0.668,-0.6729,-0.6737,-0.6679,-0.6679,-0.6679,-0.6679,-0.6679,-0.6679,-0.6883,-0.6852,-0.685,-0.6814,-0.6806,-0.6781,-0.6771,-0.6759,-0.6748,-0.6718,-0.67,-0.6696,-0.6685,-0.6663,-0.6644,-0.6642,-0.6634,-0.6624,-0.6624,-0.667,-0.6677,-0.6683,-0.669,-0.6623,-0.6623,-0.6576,-0.6576,-0.6576]},{"header":{"parameterUnit":"m.s-1","parameterCategory":1,"la1":30.2991,"la2":30.254,"lo1":-89.0895,"lo2":-89.0444,"dy":0.0017,"dx":0.0017,"nx":28,"ny":28,"refTime":"2025-11-24T03:00:00:Z","depth":0,"parameterNumber":3,"parameterNumberName":"V-component_of_WINDS"},"data":[0,0,0,0,0,0,0,0,0,0,0,0,0,0,0,0,0,0,0,0,0,0,0,0,0,0,0,0,0,0,0,0,0,0,0,0,0,0,0,0,0,0,0,0,0,0,0,0,0,0,0,0,0,0,0,0,0,0,5.1174,5.1176,0,5.134,5.1342,5.1344,5.1364,5.1363,5.1361,5.136,5.1527,5.1533,5.1539,0,0,0,0,0,0,0,0,0,0,0,0,0,5.0873,5.0879,5.1174,5.1176,5.1178,5.134,5.1342,5.1345,5.1365,5.1363,5.1361,5.1359,5.1525,5.1532,5.1539,0,0,0,0,0,0,0,0,0,0,0,0,0,5.1018,5.088,5.1174,5.1208,5.1212,5.134,5.1342,5.1345,5.1365,5.1363,5.136,5.1358,5.1523,5.1532,5.154,5.1644,0,0,5.1568,5.1572,0,0,0,0,0,0,0,0,5.101,5.1029,5.1201,5.1206,5.1211,5.1329,5.1298,5.1445,5.1366,5.1307,5.136,5.1357,5.1463,5.1477,5.1513,5.1652,5.1659,5.1569,5.1574,5.1578,5.158,0,0,0,0,0,0,0,5.1,5.1022,5.124,5.1203,5.121,5.1215,5.1232,5.1326,5.1397,5.1312,5.1314,5.1333,5.1465,5.1505,5.1517,5.1662,5.1568,5.1576,5.1582,5.1585,5.1896,5.1899,0,0,0,0,0,0,5.0984,5.1013,5.1234,5.1245,5.1103,5.1222,5.1242,5.1294,5.1396,5.1409,5.1335,5.1334,5.149,5.1507,5.1523,5.1653,5.1578,5.1586,5.1591,5.1893,5.1896,5.19,0,0,0,0,0,0,5.0977,5.1003,5.1228,5.113,5.1159,5.123,5.1288,5.1298,5.1337,5.1413,5.1426,5.1362,5.1489,5.1511,5.1615,5.1659,5.159,5.1598,5.189,5.1894,5.1898,5.1911,0,0,0,0,0,0,5.0968,5.1001,5.1041,5.1131,5.1164,5.1317,5.129,5.1303,5.1353,5.1353,5.1442,5.1454,5.1489,5.1601,5.1624,5.167,5.1605,5.1886,5.1892,5.1897,5.1907,5.1916,5.1923,0,0,0,0,0,5.0957,5.1037,5.1043,5.1069,5.1216,5.1319,5.1338,5.1377,5.1357,5.1398,5.1447,5.1452,5.165,5.1612,5.1637,5.1687,5.1883,5.189,5.1896,5.1904,5.1914,5.1923,0,0,0,0,0,0,5.0949,5.1049,5.1057,5.1167,5.1235,5.1322,5.1375,5.1386,5.146,5.1456,5.1501,5.1521,5.1623,5.1665,5.162,5.1793,5.1765,5.1777,5.1762,5.1772,5.178,5.1767,5.1613,0,0,0,0,0,5.096,5.1036,5.1119,5.1209,5.1243,5.1303,5.135,5.1374,5.1445,5.1473,5.153,5.1598,5.1676,5.1727,5.1802,5.1914,5.1934,5.1961,5.1968,5.1974,5.1984,5.2047,5.206,5.1921,5.1921,5.1921,0,0,5.0984,5.1048,5.1093,5.1209,5.1264,5.1342,5.1327,5.1409,5.1468,5.1486,5.1588,5.1632,5.1711,5.182,5.187,5.1858,5.2027,5.1982,5.1987,5.1993,5.2055,5.2069,5.208,5.1925,5.1924,5.1924,0,0,5.1066,5.1122,5.1204,5.126,5.1344,5.1385,5.1404,5.1491,5.1521,5.1625,5.1641,5.171,5.1843,5.19,5.1946,5.2053,5.206,5.2076,5.2116,5.2178,5.2189,5.2199,5.2238,5.2251,5.2085,5.2085,5.2086,0,5.1085,5.1203,5.1244,5.1328,5.1379,5.14,5.1484,5.1536,5.164,5.1675,5.166,5.1829,5.1884,5.2007,5.2033,5.2069,5.2093,5.2066,5.2184,5.2194,5.2204,5.2242,5.2256,5.2087,5.2087,5.2087,5.2086,0,5.1222,5.1304,5.136,5.1462,5.1519,5.1602,5.1656,5.1709,5.1729,5.1771,5.1877,5.1944,5.2034,5.2065,5.2085,5.2192,5.2182,5.2175,5.2147,5.2218,5.2254,5.2269,5.2089,5.2088,5.2088,5.2088,0,0,5.1303,5.1428,5.1448,5.1496,5.1591,5.1655,5.1739,5.1829,5.1874,5.1946,5.2018,5.2131,5.2126,5.2179,5.2205,5.2259,5.2341,5.2246,5.2248,5.2262,5.2464,5.2469,5.2485,5.2347,5.235,5.2352,5.2457,0,5.1397,5.1549,5.1589,5.1717,5.1794,5.1817,5.1891,5.1957,5.1999,5.207,5.2116,5.2196,5.2183,5.2215,5.2269,5.2319,5.2382,5.2312,5.2414,5.2417,5.2394,5.2503,5.2508,5.2605,5.2472,5.2474,5.2476,0,5.1527,5.1603,5.1739,5.1827,5.1861,5.1926,5.2013,5.2081,5.2157,5.2184,5.2243,5.2265,5.2354,5.2322,5.2445,5.2397,5.2441,5.2472,5.2477,5.2488,5.2451,5.2518,5.2636,5.2651,5.2498,5.2497,5.2495,0,5.1573,5.171,5.181,5.1849,5.1953,5.1999,5.2045,5.2119,5.2171,5.2247,5.2281,5.2365,5.2412,5.2477,5.2521,5.2493,5.2641,5.2612,5.2666,5.2665,5.2696,5.2693,5.2823,5.2723,5.2723,5.2723,5.2723,0,5.1675,5.1757,5.1832,5.1893,5.1987,5.2034,5.2125,5.2171,5.2237,5.2308,5.2332,5.2398,5.2453,5.2526,5.2561,5.2658,5.2679,5.2703,5.2711,5.2701,5.2698,5.2731,5.2725,5.2727,5.2726,5.2725,5.2724,0,5.1742,5.1795,5.1906,5.1996,5.2021,5.2086,5.2164,5.2224,5.2267,5.2357,5.238,5.2448,5.2536,5.2587,5.2696,5.272,5.2829,5.2834,5.2803,5.2807,5.2858,5.2853,5.3014,5.3038,5.2921,5.2922,5.2923,0,5.1803,5.1868,5.1966,5.2016,5.2062,5.2142,5.2196,5.2244,5.23,5.2393,5.2442,5.2532,5.2606,5.2745,5.2804,5.2888,5.2896,5.2947,5.2909,5.2897,5.2898,5.2894,5.2901,5.2953,5.2954,5.2955,5.2956,0,5.1907,5.1931,5.2008,5.2096,5.216,5.223,5.2301,5.234,5.24,5.2461,5.2552,5.261,5.2723,5.2812,5.2902,5.2949,5.2963,5.2967,5.2984,5.2975,5.2955,5.2967,5.2822,5.2963,5.2962,5.2962,5.2961,5.2961,5.1974,5.2033,5.2112,5.2198,5.2256,5.2322,5.2384,5.2436,5.2513,5.261,5.2634,5.2729,5.2805,5.2928,5.2977,5.3052,5.3044,5.3068,5.3074,5.308,5.3082,5.2943,5.3069,5.3069,5.3069,5.3068,5.3068,0,5.208,5.2132,5.2211,5.2309,5.2377,5.2386,5.2464,5.252,5.2605,5.2675,5.2748,5.2853,5.294,5.3006,5.3095,5.3143,5.3152,5.3165,5.3162,5.3173,5.3084,5.3061,5.3156,5.3156,5.3156,5.3156,5.3156,5.3156,5.2143,5.2244,5.2277,5.2408,5.2459,5.2554,5.2599,5.266,5.2716,5.2833,5.2906,5.2949,5.3018,5.3113,5.3193,5.321,5.3242,5.3254,5.3272,5.3188,5.3179,5.317,5.3148,5.326,5.3261,5.3355,5.3356,5.3356]}]]